[Date Prev][Date Next][Thread Prev][Thread Next] - [Date Index][Thread Index][Author Index]

2 Line ISS Keps 7-24



ISS
1 25544U 98067A   05205.23922652  .00010764  00000-0  85384-4 0  9814
2 25544 051.6460 071.1490 0003254 150.3732 315.0857 15.71906840381519
----
Via the sarex mailing list at AMSAT.ORG courtesy of AMSAT-NA.
To unsubscribe, send "unsubscribe sarex" to Majordomo@amsat.org



AMSAT Top AMSAT Home